{"data":{"norad_id":64128,"epoch":"2026-05-25T04:55:41.306016Z","epoch_age_seconds":53988,"freshness":"FRESH","line1":"1 64128U 25111F   26145.20533919  .00193961  00000+0  14769-2 0  9998","line2":"2 64128  43.0013 232.5838 0002121 266.9872  93.0753 15.70890399 58620","mean_motion":15.70890399,"eccentricity":0.0002121,"inclination_deg":43.0013,"raan_deg":232.5838,"arg_perigee_deg":266.9872,"mean_anomaly_deg":93.0753,"bstar":0.0014769,"rev_number":5862,"period_min":91.667757401578,"perigee_km":354.92263073743,"apogee_km":357.77940055366,"semimajor_km":6734.4880156455,"source":"CELESTRAK","updated_at":"2026-05-25T13:38:20.271903Z"}}